TimeCDT,TemperatureF,Dew PointF,Humidity,Sea Level PressureIn,VisibilityMPH,Wind Direction,Wind SpeedMPH,Gust SpeedMPH,PrecipitationIn,Events,Conditions,WindDirDegrees,DateUTC
12:15 AM,50.0,42.8,76,29.91,10.0,West,4.6,-,N/A,,Clear,270,2012-10-15 05:15:00
12:35 AM,50.0,42.8,76,29.92,10.0,West,5.8,-,N/A,,Clear,260,2012-10-15 05:35:00
12:55 AM,50.0,42.8,76,29.92,10.0,West,5.8,-,N/A,,Clear,260,2012-10-15 05:55:00
1:15 AM,48.2,42.8,82,29.92,10.0,West,6.9,-,N/A,,Clear,270,2012-10-15 06:15:00
1:35 AM,50.0,42.8,76,29.93,10.0,West,5.8,-,N/A,,Clear,270,2012-10-15 06:35:00
1:55 AM,48.2,42.8,82,29.93,10.0,West,4.6,-,N/A,,Clear,270,2012-10-15 06:55:00
2:15 AM,48.2,42.8,82,29.94,10.0,West,4.6,-,N/A,,Clear,270,2012-10-15 07:15:00
2:35 AM,48.2,41.0,76,29.94,10.0,West,4.6,-,N/A,,Clear,270,2012-10-15 07:35:00
2:55 AM,48.2,42.8,82,29.94,10.0,WNW,4.6,-,N/A,,Clear,290,2012-10-15 07:55:00
3:15 AM,50.0,42.8,76,29.94,10.0,WNW,3.5,-,N/A,,Clear,290,2012-10-15 08:15:00
3:35 AM,50.0,42.8,76,29.93,10.0,WNW,5.8,-,N/A,,Clear,290,2012-10-15 08:35:00
3:55 AM,48.2,41.0,76,29.93,10.0,WNW,5.8,-,N/A,,Clear,290,2012-10-15 08:55:00
4:15 AM,48.2,39.2,71,29.94,10.0,WNW,5.8,-,N/A,,Clear,290,2012-10-15 09:15:00
4:55 AM,48.2,41.0,76,29.94,10.0,WNW,4.6,-,N/A,,Clear,290,2012-10-15 09:55:00
5:15 AM,48.2,39.2,71,29.95,10.0,WNW,5.8,-,N/A,,Clear,290,2012-10-15 10:15:00
5:35 AM,48.2,39.2,71,29.96,10.0,WNW,5.8,-,N/A,,Clear,290,2012-10-15 10:35:00
5:55 AM,48.2,39.2,71,29.95,10.0,WNW,4.6,-,N/A,,Clear,290,2012-10-15 10:55:00
6:15 AM,48.2,39.2,71,29.96,10.0,Calm,Calm,-,N/A,,Clear,0,2012-10-15 11:15:00
6:35 AM,48.2,39.2,71,29.96,10.0,Calm,Calm,-,N/A,,Clear,0,2012-10-15 11:35:00
6:55 AM,46.4,39.2,76,29.97,10.0,Calm,Calm,-,N/A,,Clear,0,2012-10-15 11:55:00
7:15 AM,46.4,37.4,71,29.97,10.0,Calm,Calm,-,N/A,,Clear,0,2012-10-15 12:15:00
7:35 AM,46.4,39.2,76,29.98,10.0,Calm,Calm,-,N/A,,Clear,0,2012-10-15 12:35:00
7:55 AM,46.4,39.2,76,29.98,10.0,Calm,Calm,-,N/A,,Clear,0,2012-10-15 12:55:00
8:15 AM,48.2,41.0,76,29.99,10.0,Calm,Calm,-,N/A,,Clear,0,2012-10-15 13:15:00
8:35 AM,50.0,41.0,71,29.99,10.0,Calm,Calm,-,N/A,,Clear,0,2012-10-15 13:35:00
8:55 AM,51.8,42.8,71,29.99,10.0,WNW,5.8,-,N/A,,Clear,290,2012-10-15 13:55:00
9:15 AM,53.6,42.8,67,29.99,10.0,WNW,5.8,-,N/A,,Clear,300,2012-10-15 14:15:00
9:35 AM,55.4,44.6,67,30.00,10.0,Calm,Calm,-,N/A,,Clear,0,2012-10-15 14:35:00
9:55 AM,57.2,44.6,63,30.00,10.0,Calm,Calm,-,N/A,,Clear,0,2012-10-15 14:55:00
10:15 AM,57.2,44.6,63,30.00,10.0,NNW,4.6,-,N/A,,Clear,330,2012-10-15 15:15:00
10:35 AM,60.8,44.6,55,30.01,10.0,NW,3.5,-,N/A,,Clear,320,2012-10-15 15:35:00
10:55 AM,60.8,42.8,52,30.00,10.0,WNW,4.6,-,N/A,,Clear,300,2012-10-15 15:55:00
11:15 AM,62.6,42.8,48,30.00,10.0,West,4.6,-,N/A,,Clear,270,2012-10-15 16:15:00
11:35 AM,64.4,41.0,42,30.00,10.0,NW,5.8,-,N/A,,Clear,310,2012-10-15 16:35:00
11:55 AM,64.4,42.8,45,30.01,10.0,NNW,4.6,-,N/A,,Clear,330,2012-10-15 16:55:00
12:15 PM,64.4,42.8,45,30.00,10.0,West,4.6,-,N/A,,Clear,270,2012-10-15 17:15:00
12:35 PM,66.2,39.2,37,30.00,10.0,West,6.9,-,N/A,,Clear,280,2012-10-15 17:35:00
12:55 PM,66.2,41.0,40,30.00,10.0,Calm,Calm,-,N/A,,Clear,0,2012-10-15 17:55:00
1:15 PM,68.0,42.8,40,29.99,10.0,NNW,3.5,-,N/A,,Clear,340,2012-10-15 18:15:00
1:35 PM,68.0,39.2,35,29.98,10.0,Calm,Calm,-,N/A,,Clear,0,2012-10-15 18:35:00
1:55 PM,68.0,41.0,37,29.97,10.0,NW,5.8,-,N/A,,Clear,310,2012-10-15 18:55:00
2:15 PM,69.8,39.2,33,29.96,10.0,Calm,Calm,-,N/A,,Clear,0,2012-10-15 19:15:00
2:35 PM,69.8,39.2,33,29.96,2.0,Calm,Calm,-,N/A,,Haze,0,2012-10-15 19:35:00
2:55 PM,69.8,37.4,31,29.95,10.0,Calm,Calm,-,N/A,,Clear,0,2012-10-15 19:55:00
3:15 PM,69.8,39.2,33,29.95,10.0,Calm,Calm,-,N/A,,Clear,0,2012-10-15 20:15:00
3:35 PM,69.8,39.2,33,29.94,4.0,Calm,Calm,-,N/A,,Haze,0,2012-10-15 20:35:00
3:55 PM,69.8,39.2,33,29.94,7.0,ESE,3.5,-,N/A,,Clear,110,2012-10-15 20:55:00
4:15 PM,69.8,39.2,33,29.94,7.0,ESE,4.6,-,N/A,,Clear,110,2012-10-15 21:15:00
4:35 PM,69.8,41.0,35,29.94,5.0,East,3.5,-,N/A,,Haze,100,2012-10-15 21:35:00
4:55 PM,69.8,42.8,38,29.94,3.0,East,3.5,-,N/A,,Haze,90,2012-10-15 21:55:00
5:15 PM,69.8,42.8,38,29.93,2.5,East,3.5,-,N/A,,Haze,100,2012-10-15 22:15:00
5:35 PM,69.8,42.8,38,29.93,3.0,Calm,Calm,-,N/A,,Haze,0,2012-10-15 22:35:00
5:55 PM,69.8,37.4,31,29.92,5.0,Calm,Calm,-,N/A,,Haze,0,2012-10-15 22:55:00
6:15 PM,66.2,44.6,46,29.92,2.5,Calm,Calm,-,N/A,,Haze,0,2012-10-15 23:15:00
6:35 PM,66.2,41.0,40,29.92,4.0,Calm,Calm,-,N/A,,Haze,0,2012-10-15 23:35:00
6:55 PM,62.6,42.8,48,29.93,5.0,Calm,Calm,-,N/A,,Haze,0,2012-10-15 23:55:00
7:15 PM,62.6,42.8,48,29.92,2.5,Calm,Calm,-,N/A,,Haze,0,2012-10-16 00:15:00
7:35 PM,57.2,44.6,63,29.92,7.0,SSE,3.5,-,N/A,,Clear,160,2012-10-16 00:35:00
7:55 PM,57.2,44.6,63,29.93,10.0,Calm,Calm,-,N/A,,Clear,0,2012-10-16 00:55:00
8:15 PM,57.2,44.6,63,29.93,10.0,South,3.5,-,N/A,,Clear,170,2012-10-16 01:15:00
8:35 PM,57.2,44.6,63,29.93,10.0,SSE,3.5,-,N/A,,Clear,150,2012-10-16 01:35:00
8:55 PM,59.0,44.6,59,29.93,10.0,Calm,Calm,-,N/A,,Clear,0,2012-10-16 01:55:00
9:15 PM,57.2,44.6,63,29.93,10.0,SE,3.5,-,N/A,,Clear,130,2012-10-16 02:15:00
9:35 PM,55.4,44.6,67,29.93,10.0,Calm,Calm,-,N/A,,Clear,0,2012-10-16 02:35:00
9:55 PM,57.2,44.6,63,29.93,10.0,SSE,3.5,-,N/A,,Clear,150,2012-10-16 02:55:00
10:15 PM,57.2,44.6,63,29.92,10.0,SE,3.5,-,N/A,,Clear,140,2012-10-16 03:15:00
10:35 PM,57.2,44.6,63,29.92,10.0,SSE,4.6,-,N/A,,Clear,150,2012-10-16 03:35:00
10:55 PM,57.2,44.6,63,29.92,10.0,SSE,4.6,-,N/A,,Clear,150,2012-10-16 03:55:00
11:15 PM,55.4,44.6,67,29.91,3.0,SE,4.6,-,N/A,,Haze,140,2012-10-16 04:15:00
11:35 PM,57.2,44.6,63,29.91,7.0,SSE,4.6,-,N/A,,Clear,150,2012-10-16 04:35:00
11:55 PM,55.4,44.6,67,29.91,4.0,SE,4.6,-,N/A,,Haze,140,2012-10-16 04:55:00